| time (UTC) | temp C | wind direction | speed KPH | gust KPH | rain 1hr cm | rain 24hr cm | rain mn cm | humidity % | barometer mb |
| 20260903163020 | 25 | 309 | 0.0 | 0.0 | 0.46 | 1.42 | 0.56 | 94 | 1016.3 |
| 20260903162510 | 25 | 309 | 0.0 | 0.0 | 0.48 | 1.42 | 0.56 | 94 | 1016.3 |
| 20260903162010 | 24 | 309 | 0.0 | 0.0 | 0.48 | 1.42 | 0.56 | 94 | 1016.2 |
| 20260903161510 | 24 | 309 | 0.0 | 3.2 | 0.48 | 1.42 | 0.56 | 94 | 1016.2 |
| 20260903161009 | 24 | 13 | 0.0 | 3.2 | 0.48 | 1.42 | 0.56 | 94 | 1016.4 |
| 20260903160509 | 24 | 165 | 0.0 | 4.8 | 0.43 | 1.37 | 0.51 | 94 | 1016.4 |
| 20260903160008 | 24 | 3 | 0.0 | 8.0 | 0.41 | 1.35 | 0.48 | 93 | 1016.6 |
| 20260903155507 | 25 | 281 | 0.0 | 11.3 | 0.33 | 1.27 | 0.41 | 93 | 1016.7 |
| 20260903155006 | 25 | 328 | 1.6 | 11.3 | 0.25 | 1.19 | 0.33 | 93 | 1016.8 |
| 20260903154505 | 25 | 150 | 0.0 | 12.9 | 0.15 | 1.09 | 0.23 | 93 | 1017.0 |
| 20260903154004 | 25 | 103 | 1.6 | 12.9 | 0.18 | 1.09 | 0.23 | 92 | 1016.9 |
| 20260903153502 | 25 | 122 | 1.6 | 6.4 | 0.13 | 1.04 | 0.20 | 92 | 1016.7 |
| 20260903153001 | 26 | 329 | 1.6 | 6.4 | 0.03 | 0.94 | 0.08 | 93 | 1016.8 |
| 20260903152600 | 26 | 39 | 0.0 | 1.6 | 0.03 | 0.94 | 0.08 | 94 | 1016.6 |
| 20260903152058 | 26 | 39 | 0.0 | 0.0 | 0.03 | 0.94 | 0.08 | 94 | 1016.3 |
| 20260903151557 | 26 | 39 | 0.0 | 0.0 | 0.05 | 0.94 | 0.08 | 93 | 1016.1 |
| 20260903151056 | 26 | 39 | 0.0 | 0.0 | 0.08 | 0.94 | 0.08 | 93 | 1016.2 |
| 20260903150555 | 26 | 39 | 0.0 | 0.0 | 0.08 | 0.94 | 0.08 | 93 | 1016.1 |
| 20260903150109 | 26 | 39 | 0.0 | 0.0 | 0.08 | 0.94 | 0.08 | 93 | 1016.1 |
| 20260903145554 | 26 | 39 | 0.0 | 0.0 | 0.08 | 0.94 | 0.08 | 93 | 1016.0 |
| 20260903145052 | 26 | 39 | 0.0 | 0.0 | 0.08 | 0.94 | 0.08 | 93 | 1015.9 |
| 20260903144556 | 26 | 39 | 0.0 | 0.0 | 0.08 | 0.94 | 0.08 | 93 | 1015.9 |
| 20260903144051 | 26 | 39 | 0.0 | 0.0 | 0.05 | 0.91 | 0.05 | 92 | 1016.0 |
| 20260903143551 | 26 | 39 | 0.0 | 1.6 | 0.05 | 0.91 | 0.05 | 91 | 1015.9 |
| 20260903143049 | 26 | 39 | 0.0 | 1.6 | 0.05 | 0.91 | 0.05 | 91 | 1015.8 |
| 20260903142548 | 26 | 224 | 0.0 | 3.2 | 0.05 | 0.91 | 0.05 | 91 | 1015.8 |
| 20260903142046 | 27 | 101 | 0.0 | 3.2 | 0.05 | 0.91 | 0.05 | 90 | 1015.8 |
| 20260903141548 | 27 | 151 | 0.0 | 3.2 | 0.03 | 0.89 | 0.03 | 90 | 1015.7 |
| 20260903141048 | 27 | 141 | 0.0 | 3.2 | 0.00 | 0.86 | 0.00 | 90 | 1015.8 |
| 20260903140546 | 27 | 287 | 0.0 | 1.6 | 0.00 | 0.86 | 0.00 | 90 | 1015.7 |
| 20260903140044 | 27 | 287 | 0.0 | 1.6 | 0.00 | 0.86 | 0.00 | 90 | 1015.7 |
| 20260903135543 | 27 | 182 | 0.0 | 4.8 | 0.00 | 0.86 | 0.00 | 90 | 1015.9 |
| 20260903135042 | 27 | 178 | 0.0 | 4.8 | 0.00 | 0.86 | 0.00 | 91 | 1015.8 |
| 20260903134550 | 27 | 144 | 0.0 | 1.6 | 0.00 | 0.86 | 0.00 | 93 | 1015.9 |
| 20260903134042 | 27 | 144 | 0.0 | 1.6 | 0.00 | 0.86 | 0.00 | 93 | 1015.9 |
| 20260903133540 | 26 | 276 | 0.0 | 1.6 | 0.00 | 0.86 | 0.00 | 93 | 1015.8 |
| 20260903133038 | 26 | 224 | 0.0 | 1.6 | 0.00 | 0.86 | 0.00 | 94 | 1015.8 |
| 20260903132534 | 26 | 277 | 0.0 | 1.6 | 0.00 | 0.86 | 0.00 | 94 | 1015.8 |
| 20260903132033 | 26 | 254 | 0.0 | 1.6 | 0.00 | 0.86 | 0.00 | 95 | 1015.8 |
| 20260903131532 | 26 | 258 | 0.0 | 1.6 | 0.00 | 0.86 | 0.00 | 95 | 1015.7 |
| 20260903131030 | 26 | 257 | 0.0 | 0.0 | 0.00 | 0.86 | 0.00 | 95 | 1015.7 |
| 20260903130529 | 26 | 258 | 0.0 | 1.6 | 0.00 | 0.86 | 0.00 | 95 | 1015.7 |
| 20260903130027 | 26 | 258 | 0.0 | 1.6 | 0.00 | 0.86 | 0.00 | 95 | 1015.7 |
| 20260903125528 | 26 | 241 | 0.0 | 1.6 | 0.00 | 0.86 | 0.00 | 95 | 1015.7 |
| 20260903125026 | 25 | 49 | 0.0 | 1.6 | 0.00 | 0.86 | 0.00 | 95 | 1015.7 |
| 20260903124525 | 25 | 49 | 0.0 | 1.6 | 0.00 | 0.86 | 0.00 | 95 | 1015.7 |
| 20260903124025 | 25 | 49 | 0.0 | 1.6 | 0.00 | 0.86 | 0.00 | 96 | 1015.7 |
| 20260903123523 | 25 | 352 | 0.0 | 1.6 | 0.00 | 0.86 | 0.00 | 96 | 1015.7 |
| 20260903123032 | 25 | 326 | 0.0 | 1.6 | 0.00 | 0.86 | 0.00 | 96 | 1015.8 |
| 20260903122523 | 25 | 265 | 0.0 | 1.6 | 0.00 | 0.86 | 0.00 | 96 | 1015.8 |
| 20260903122020 | 25 | 264 | 0.0 | 0.0 | 0.00 | 0.86 | 0.00 | 96 | 1015.7 |
| 20260903121526 | 25 | 264 | 0.0 | 0.0 | 0.00 | 0.86 | 0.00 | 96 | 1015.7 |
| 20260903121017 | 25 | 264 | 0.0 | 0.0 | 0.00 | 0.86 | 0.00 | 96 | 1015.5 |
| 20260903120520 | 25 | 264 | 0.0 | 1.6 | 0.00 | 0.86 | 0.00 | 96 | 1015.5 |
| 20260903120015 | 25 | 264 | 0.0 | 1.6 | 0.00 | 0.86 | 0.00 | 96 | 1015.4 |
| 20260903115513 | 25 | 264 | 0.0 | 0.0 | 0.00 | 0.86 | 0.00 | 95 | 1015.3 |
| 20260903115013 | 25 | 264 | 0.0 | 0.0 | 0.00 | 0.86 | 0.00 | 95 | 1015.2 |
| 20260903114512 | 25 | 264 | 0.0 | 0.0 | 0.00 | 0.86 | 0.00 | 95 | 1015.1 |
| 20260903114011 | 25 | 264 | 0.0 | 0.0 | 0.00 | 0.86 | 0.00 | 95 | 1015.1 |
| 20260903113511 | 25 | 264 | 0.0 | 0.0 | 0.00 | 0.86 | 0.00 | 95 | 1015.1 |
| 20260903113010 | 25 | 264 | 0.0 | 0.0 | 0.00 | 0.86 | 0.00 | 95 | 1015.0 |
| 20260903112511 | 25 | 264 | 0.0 | 0.0 | 0.00 | 0.86 | 0.00 | 95 | 1014.9 |
| 20260903112009 | 25 | 264 | 0.0 | 0.0 | 0.00 | 0.86 | 0.00 | 95 | 1014.8 |
| 20260903111511 | 25 | 264 | 0.0 | 0.0 | 0.00 | 0.86 | 0.00 | 95 | 1014.7 |
| 20260903111010 | 25 | 264 | 0.0 | 0.0 | 0.00 | 0.86 | 0.00 | 95 | 1014.7 |
| 20260903110508 | 25 | 264 | 0.0 | 0.0 | 0.00 | 0.86 | 0.00 | 95 | 1014.6 |
| 20260903110007 | 25 | 264 | 0.0 | 0.0 | 0.00 | 0.86 | 0.00 | 95 | 1014.5 |
| 20260903105508 | 25 | 264 | 0.0 | 0.0 | 0.00 | 0.86 | 0.00 | 95 | 1014.4 |
| 20260903105007 | 25 | 264 | 0.0 | 0.0 | 0.00 | 0.86 | 0.00 | 95 | 1014.5 |
| 20260903104507 | 25 | 264 | 0.0 | 0.0 | 0.00 | 0.86 | 0.00 | 95 | 1014.4 |
| 20260903104006 | 25 | 264 | 0.0 | 0.0 | 0.00 | 0.86 | 0.00 | 95 | 1014.4 |
| 20260903103505 | 25 | 264 | 0.0 | 0.0 | 0.00 | 0.86 | 0.00 | 95 | 1014.3 |
| 20260903103004 | 25 | 264 | 0.0 | 0.0 | 0.00 | 0.86 | 0.00 | 95 | 1014.3 |
| 20260903102504 | 25 | 264 | 0.0 | 0.0 | 0.00 | 0.86 | 0.00 | 95 | 1014.4 |
| 20260903102004 | 25 | 264 | 0.0 | 0.0 | 0.00 | 0.86 | 0.00 | 95 | 1014.3 |
| 20260903101502 | 25 | 264 | 0.0 | 0.0 | 0.00 | 0.86 | 0.00 | 95 | 1014.3 |
| 20260903101005 | 25 | 264 | 0.0 | 0.0 | 0.00 | 0.86 | 0.00 | 95 | 1014.2 |
| 20260903100502 | 25 | 264 | 0.0 | 0.0 | 0.00 | 0.86 | 0.00 | 95 | 1014.2 |
| 20260903100001 | 25 | 264 | 0.0 | 0.0 | 0.00 | 0.86 | 0.00 | 95 | 1014.2 |
| 20260903095600 | 25 | 264 | 0.0 | 0.0 | 0.00 | 0.86 | 0.00 | 95 | 1014.1 |
| 20260903095100 | 25 | 264 | 0.0 | 0.0 | 0.00 | 0.86 | 0.00 | 95 | 1014.2 |
| 20260903094612 | 25 | 264 | 0.0 | 0.0 | 0.00 | 0.86 | 0.00 | 95 | 1014.0 |
| 20260903094059 | 25 | 264 | 0.0 | 0.0 | 0.00 | 0.86 | 0.00 | 95 | 1013.9 |
| 20260903093556 | 25 | 264 | 0.0 | 0.0 | 0.00 | 0.86 | 0.00 | 95 | 1013.9 |
| 20260903093057 | 25 | 264 | 0.0 | 0.0 | 0.00 | 0.86 | 0.00 | 95 | 1013.9 |
| 20260903092557 | 25 | 264 | 0.0 | 0.0 | 0.00 | 0.86 | 0.00 | 95 | 1013.9 |
| 20260903092057 | 25 | 264 | 0.0 | 0.0 | 0.00 | 0.86 | 0.00 | 95 | 1013.9 |
| 20260903091612 | 25 | 264 | 0.0 | 0.0 | 0.00 | 0.86 | 0.00 | 95 | 1013.9 |
| 20260903091054 | 25 | 264 | 0.0 | 0.0 | 0.00 | 0.86 | 0.00 | 95 | 1013.9 |
| 20260903090554 | 25 | 264 | 0.0 | 0.0 | 0.00 | 0.86 | 0.00 | 95 | 1013.9 |
| 20260903090057 | 25 | 264 | 0.0 | 0.0 | 0.00 | 0.86 | 0.00 | 95 | 1013.9 |
| 20260903085553 | 25 | 264 | 0.0 | 0.0 | 0.00 | 0.86 | 0.00 | 95 | 1013.9 |
| 20260903085052 | 25 | 264 | 0.0 | 0.0 | 0.00 | 0.86 | 0.00 | 95 | 1013.9 |
| 20260903084554 | 25 | 264 | 0.0 | 0.0 | 0.00 | 0.86 | 0.00 | 95 | 1014.0 |
| 20260903084054 | 25 | 264 | 0.0 | 0.0 | 0.00 | 0.86 | 0.00 | 95 | 1013.9 |
| 20260903083550 | 25 | 264 | 0.0 | 0.0 | 0.00 | 0.86 | 0.00 | 95 | 1014.0 |
| 20260903083049 | 25 | 264 | 0.0 | 0.0 | 0.00 | 0.86 | 0.00 | 95 | 1014.0 |
| 20260903082547 | 25 | 264 | 0.0 | 0.0 | 0.00 | 0.86 | 0.00 | 95 | 1014.1 |
| 20260903082047 | 25 | 264 | 0.0 | 0.0 | 0.00 | 0.86 | 0.00 | 95 | 1014.1 |
| 20260903081546 | 25 | 264 | 0.0 | 0.0 | 0.00 | 0.86 | 0.00 | 95 | 1014.2 |
| 20260903081046 | 25 | 264 | 0.0 | 0.0 | 0.00 | 0.86 | 0.00 | 95 | 1014.2 |
| 20260903080544 | 25 | 264 | 0.0 | 0.0 | 0.00 | 0.86 | 0.00 | 95 | 1014.2 |
| 20260903080048 | 25 | 264 | 0.0 | 0.0 | 0.00 | 0.86 | 0.00 | 95 | 1014.3 |
| 20260903075543 | 25 | 264 | 0.0 | 0.0 | 0.00 | 0.86 | 0.00 | 95 | 1014.2 |
| 20260903075042 | 25 | 264 | 0.0 | 0.0 | 0.00 | 0.86 | 0.00 | 95 | 1014.2 |
| 20260903074546 | 25 | 264 | 0.0 | 0.0 | 0.00 | 0.86 | 0.00 | 95 | 1014.3 |
| 20260903074041 | 25 | 264 | 0.0 | 0.0 | 0.00 | 0.86 | 0.00 | 95 | 1014.2 |
| 20260903073539 | 25 | 264 | 0.0 | 0.0 | 0.00 | 0.86 | 0.00 | 95 | 1014.3 |
| 20260903073038 | 25 | 264 | 0.0 | 0.0 | 0.00 | 0.86 | 0.00 | 95 | 1014.3 |
| 20260903072536 | 25 | 264 | 0.0 | 0.0 | 0.00 | 0.86 | 0.00 | 95 | 1014.3 |
| 20260903072036 | 25 | 264 | 0.0 | 0.0 | 0.00 | 0.86 | 0.00 | 95 | 1014.5 |
| 20260903071535 | 25 | 264 | 0.0 | 0.0 | 0.00 | 0.86 | 0.00 | 95 | 1014.6 |
| 20260903071033 | 25 | 264 | 0.0 | 0.0 | 0.00 | 0.86 | 0.00 | 95 | 1014.6 |
| 20260903070533 | 25 | 264 | 0.0 | 0.0 | 0.00 | 0.86 | 0.00 | 95 | 1014.6 |
| 20260903070033 | 25 | 264 | 0.0 | 0.0 | 0.00 | 0.86 | 0.00 | 95 | 1014.5 |
| 20260903065532 | 25 | 264 | 0.0 | 0.0 | 0.00 | 0.86 | 0.00 | 95 | 1014.5 |
| 20260903065032 | 25 | 264 | 0.0 | 0.0 | 0.00 | 0.86 | 0.00 | 95 | 1014.6 |
| 20260903064531 | 25 | 264 | 0.0 | 0.0 | 0.00 | 0.86 | 0.00 | 95 | 1014.6 |
| 20260903064030 | 25 | 264 | 0.0 | 0.0 | 0.00 | 0.86 | 0.00 | 95 | 1014.6 |
| 20260903063531 | 25 | 264 | 0.0 | 0.0 | 0.00 | 0.86 | 0.00 | 95 | 1014.6 |
| 20260903063030 | 25 | 264 | 0.0 | 0.0 | 0.00 | 0.86 | 0.00 | 95 | 1014.7 |
| 20260903062526 | 25 | 264 | 0.0 | 0.0 | 0.00 | 0.86 | 0.00 | 95 | 1014.8 |
| 20260903062024 | 25 | 264 | 0.0 | 0.0 | 0.00 | 0.86 | 0.00 | 95 | 1014.8 |
| 20260903061534 | 25 | 264 | 0.0 | 0.0 | 0.00 | 0.86 | 0.00 | 95 | 1015.0 |
| 20260903061027 | 25 | 264 | 0.0 | 0.0 | 0.00 | 0.86 | 0.00 | 95 | 1015.0 |
| 20260903060522 | 25 | 264 | 0.0 | 0.0 | 0.00 | 0.86 | 0.00 | 95 | 1015.1 |
| 20260903060034 | 25 | 264 | 0.0 | 0.0 | 0.00 | 0.86 | 0.00 | 95 | 1015.1 |
| 20260903055520 | 25 | 264 | 0.0 | 0.0 | 0.00 | 0.86 | 0.00 | 95 | 1015.1 |
| 20260903055020 | 25 | 264 | 0.0 | 0.0 | 0.00 | 0.86 | 0.00 | 95 | 1015.2 |
| 20260903054521 | 25 | 264 | 0.0 | 0.0 | 0.00 | 0.86 | 0.00 | 95 | 1015.3 |
| 20260903053504 | 25 | 264 | 0.0 | 0.0 | 0.00 | 0.86 | 0.00 | 95 | 1015.4 |
| 20260903053117 | 25 | 264 | 0.0 | 0.0 | 0.00 | 0.86 | 0.00 | 95 | 1015.3 |
| 20260903052503 | 25 | 264 | 0.0 | 0.0 | 0.00 | 0.86 | 0.00 | 95 | 1015.3 |
| 20260903052002 | 25 | 264 | 0.0 | 0.0 | 0.00 | 0.86 | 0.00 | 95 | 1015.5 |
| 20260903051635 | 25 | 264 | 0.0 | 0.0 | 0.00 | 0.86 | 0.00 | 95 | 1015.5 |
| 20260903045553 | 25 | 264 | 0.0 | 0.0 | 0.00 | 0.86 | 0.00 | 94 | 1015.3 |
| 20260903045053 | 25 | 264 | 0.0 | 0.0 | 0.00 | 0.86 | 0.00 | 94 | 1015.5 |
| 20260903044559 | 25 | 264 | 0.0 | 0.0 | 0.00 | 0.86 | 0.00 | 94 | 1015.5 |
| 20260903044052 | 25 | 264 | 0.0 | 0.0 | 0.00 | 0.86 | 0.00 | 94 | 1015.5 |
| 20260903043549 | 25 | 264 | 0.0 | 0.0 | 0.00 | 0.86 | 0.00 | 94 | 1015.4 |
| 20260903043106 | 25 | 264 | 0.0 | 0.0 | 0.00 | 0.86 | 0.00 | 94 | 1015.5 |
| 20260903042547 | 25 | 264 | 0.0 | 0.0 | 0.00 | 0.86 | 0.00 | 94 | 1015.4 |
| 20260903042051 | 25 | 264 | 0.0 | 0.0 | 0.00 | 0.86 | 0.00 | 94 | 1015.4 |
| 20260903041551 | 25 | 264 | 0.0 | 0.0 | 0.00 | 0.86 | 0.00 | 94 | 1015.5 |
| 20260903041047 | 25 | 264 | 0.0 | 0.0 | 0.00 | 0.86 | 0.00 | 94 | 1015.5 |
| 20260903040544 | 25 | 264 | 0.0 | 0.0 | 0.00 | 0.86 | 0.00 | 94 | 1015.4 |
| 20260903040045 | 25 | 264 | 0.0 | 0.0 | 0.00 | 0.86 | 0.00 | 94 | 1015.5 |
| 20260903035540 | 25 | 264 | 0.0 | 0.0 | 0.00 | 0.86 | 0.86 | 94 | 1015.5 |
| 20260903035040 | 25 | 264 | 0.0 | 0.0 | 0.00 | 0.86 | 0.86 | 94 | 1015.5 |
| 20260903034540 | 25 | 264 | 0.0 | 0.0 | 0.00 | 0.86 | 0.86 | 94 | 1015.6 |
| 20260903034039 | 25 | 264 | 0.0 | 0.0 | 0.00 | 0.86 | 0.86 | 94 | 1015.7 |
| 20260903033538 | 25 | 264 | 0.0 | 0.0 | 0.00 | 0.86 | 0.86 | 94 | 1015.7 |
| 20260903033038 | 25 | 264 | 0.0 | 0.0 | 0.00 | 0.86 | 0.86 | 94 | 1015.7 |
| 20260903032537 | 25 | 264 | 0.0 | 0.0 | 0.00 | 0.86 | 0.86 | 94 | 1015.7 |
| 20260903032037 | 25 | 264 | 0.0 | 0.0 | 0.00 | 0.86 | 0.86 | 94 | 1015.8 |
| 20260903031536 | 25 | 264 | 0.0 | 0.0 | 0.00 | 0.86 | 0.86 | 94 | 1015.8 |
| 20260903031035 | 25 | 264 | 0.0 | 0.0 | 0.00 | 0.86 | 0.86 | 94 | 1015.8 |
| 20260903030535 | 25 | 264 | 0.0 | 0.0 | 0.00 | 0.86 | 0.86 | 94 | 1015.8 |
| 20260903030035 | 25 | 264 | 0.0 | 0.0 | 0.00 | 0.86 | 0.86 | 94 | 1015.8 |
| 20260903025535 | 25 | 264 | 0.0 | 0.0 | 0.00 | 0.86 | 0.86 | 94 | 1015.9 |
| 20260903025035 | 25 | 264 | 0.0 | 0.0 | 0.00 | 0.86 | 0.86 | 94 | 1015.9 |
| 20260903024533 | 25 | 264 | 0.0 | 0.0 | 0.00 | 0.86 | 0.86 | 94 | 1016.1 |
| 20260903024032 | 25 | 264 | 0.0 | 0.0 | 0.00 | 0.86 | 0.86 | 94 | 1016.1 |
| 20260903023530 | 25 | 264 | 0.0 | 0.0 | 0.00 | 0.86 | 0.86 | 94 | 1016.1 |
| 20260903023030 | 25 | 264 | 0.0 | 0.0 | 0.00 | 0.86 | 0.86 | 94 | 1015.9 |
| 20260903022532 | 25 | 264 | 0.0 | 0.0 | 0.00 | 0.86 | 0.86 | 93 | 1016.0 |
| 20260903022029 | 25 | 264 | 0.0 | 0.0 | 0.00 | 0.86 | 0.86 | 93 | 1016.1 |
| 20260903021528 | 25 | 264 | 0.0 | 0.0 | 0.00 | 0.86 | 0.86 | 93 | 1016.1 |
| 20260903021031 | 25 | 264 | 0.0 | 0.0 | 0.00 | 0.86 | 0.86 | 93 | 1016.1 |
| 20260903020526 | 25 | 264 | 0.0 | 0.0 | 0.00 | 0.86 | 0.86 | 93 | 1016.0 |
| 20260903020026 | 25 | 264 | 0.0 | 0.0 | 0.00 | 0.86 | 0.86 | 93 | 1016.0 |
| 20260903015527 | 25 | 264 | 0.0 | 0.0 | 0.00 | 0.86 | 0.86 | 93 | 1016.0 |
| 20260903015026 | 25 | 264 | 0.0 | 0.0 | 0.00 | 0.86 | 0.86 | 93 | 1016.1 |
| 20260903014525 | 25 | 264 | 0.0 | 0.0 | 0.00 | 0.86 | 0.86 | 93 | 1016.0 |
| 20260903014024 | 25 | 264 | 0.0 | 0.0 | 0.00 | 0.86 | 0.86 | 93 | 1015.9 |
| 20260903013524 | 25 | 264 | 0.0 | 0.0 | 0.00 | 0.86 | 0.86 | 93 | 1015.9 |
| 20260903013024 | 25 | 264 | 0.0 | 0.0 | 0.00 | 0.86 | 0.86 | 92 | 1015.8 |
| 20260903012526 | 25 | 264 | 0.0 | 0.0 | 0.00 | 0.86 | 0.86 | 92 | 1015.8 |
| 20260903012024 | 25 | 264 | 0.0 | 0.0 | 0.00 | 0.86 | 0.86 | 92 | 1015.8 |
| 20260903011521 | 25 | 264 | 0.0 | 0.0 | 0.00 | 0.86 | 0.86 | 92 | 1016.0 |
| 20260903011022 | 25 | 264 | 0.0 | 0.0 | 0.00 | 0.86 | 0.86 | 92 | 1015.9 |
| 20260903010520 | 25 | 264 | 0.0 | 0.0 | 0.00 | 0.86 | 0.86 | 92 | 1016.0 |
| 20260903010020 | 25 | 264 | 0.0 | 0.0 | 0.00 | 0.86 | 0.86 | 92 | 1016.0 |
| 20260903005519 | 25 | 264 | 0.0 | 0.0 | 0.00 | 0.86 | 0.86 | 92 | 1015.8 |
| 20260903005019 | 25 | 264 | 0.0 | 0.0 | 0.00 | 0.86 | 0.86 | 91 | 1015.6 |
| 20260903004523 | 25 | 264 | 0.0 | 0.0 | 0.00 | 0.86 | 0.86 | 91 | 1015.6 |
| 20260903004017 | 25 | 264 | 0.0 | 0.0 | 0.00 | 0.86 | 0.86 | 91 | 1015.5 |
| 20260903003517 | 25 | 264 | 0.0 | 0.0 | 0.00 | 0.86 | 0.86 | 91 | 1015.5 |
| 20260903003020 | 26 | 264 | 0.0 | 0.0 | 0.00 | 0.86 | 0.86 | 91 | 1015.6 |
| 20260903002517 | 26 | 264 | 0.0 | 1.6 | 0.00 | 0.86 | 0.86 | 91 | 1015.6 |
| 20260903002014 | 26 | 264 | 0.0 | 1.6 | 0.00 | 0.86 | 0.86 | 91 | 1015.5 |
| 20260903001519 | 26 | 264 | 0.0 | 1.6 | 0.00 | 0.86 | 0.86 | 91 | 1015.5 |
| 20260903001014 | 26 | 330 | 0.0 | 4.8 | 0.00 | 0.86 | 0.86 | 91 | 1015.6 |
| 20260903000512 | 26 | 333 | 0.0 | 4.8 | 0.00 | 0.86 | 0.86 | 91 | 1015.6 |
| 20260903000011 | 26 | 324 | 0.0 | 3.2 | 0.00 | 0.86 | 0.86 | 91 | 1015.5 |
| 20260902235511 | 26 | 98 | 0.0 | 0.0 | 0.00 | 0.86 | 0.86 | 91 | 1015.4 |
| 20260902235010 | 26 | 98 | 0.0 | 0.0 | 0.00 | 0.86 | 0.86 | 91 | 1015.5 |
| 20260902234510 | 26 | 107 | 0.0 | 1.6 | 0.00 | 0.86 | 0.86 | 91 | 1015.4 |
| 20260902234012 | 26 | 94 | 0.0 | 1.6 | 0.00 | 0.86 | 0.86 | 91 | 1015.4 |
| 20260902233509 | 26 | 229 | 0.0 | 1.6 | 0.00 | 0.86 | 0.86 | 91 | 1015.3 |
| 20260902233009 | 26 | 229 | 0.0 | 1.6 | 0.00 | 0.86 | 0.86 | 90 | 1015.4 |
| 20260902232509 | 26 | 229 | 0.0 | 1.6 | 0.00 | 0.86 | 0.86 | 90 | 1015.4 |
| 20260902232008 | 26 | 262 | 0.0 | 1.6 | 0.00 | 0.86 | 0.86 | 90 | 1015.5 |
| 20260902231511 | 26 | 274 | 0.0 | 1.6 | 0.00 | 0.86 | 0.86 | 90 | 1015.3 |
| 20260902231006 | 26 | 230 | 0.0 | 1.6 | 0.00 | 0.86 | 0.86 | 91 | 1015.3 |
| 20260902230506 | 26 | 230 | 0.0 | 1.6 | 0.00 | 0.86 | 0.86 | 91 | 1015.2 |
| 20260902230006 | 26 | 230 | 0.0 | 1.6 | 0.00 | 0.86 | 0.86 | 91 | 1015.3 |
| 20260902225505 | 26 | 230 | 0.0 | 1.6 | 0.00 | 0.86 | 0.86 | 91 | 1015.4 |
| 20260902225005 | 26 | 338 | 0.0 | 1.6 | 0.00 | 0.86 | 0.86 | 91 | 1015.5 |
| 20260902224504 | 26 | 311 | 0.0 | 0.0 | 0.00 | 0.86 | 0.86 | 91 | 1015.5 |
| 20260902224003 | 26 | 311 | 0.0 | 3.2 | 0.00 | 0.86 | 0.86 | 91 | 1015.4 |
| 20260902223501 | 26 | 311 | 0.0 | 3.2 | 0.00 | 0.86 | 0.86 | 90 | 1015.5 |
| 20260902223001 | 26 | 116 | 0.0 | 3.2 | 0.00 | 0.86 | 0.86 | 91 | 1015.5 |
| 20260902222559 | 26 | 214 | 0.0 | 1.6 | 0.00 | 0.86 | 0.86 | 91 | 1015.5 |
| 20260902222505 | 26 | 303 | 0.0 | 1.6 | 0.00 | 0.86 | 0.86 | 91 | 1015.6 |
| 20260902222103 | 26 | 303 | 0.0 | 1.6 | 0.00 | 0.86 | 0.86 | 91 | 1015.5 |
| 20260902221607 | 26 | 303 | 0.0 | 3.2 | 0.05 | 0.86 | 0.86 | 90 | 1015.4 |
| 20260902221059 | 26 | 198 | 0.0 | 6.4 | 0.10 | 0.86 | 0.86 | 91 | 1015.3 |
| 20260902220557 | 26 | 77 | 0.0 | 6.4 | 0.10 | 0.86 | 0.86 | 91 | 1015.3 |
| 20260902220101 | 26 | 204 | 0.0 | 3.2 | 0.10 | 0.86 | 0.86 | 91 | 1015.5 |
| 20260902215556 | 26 | 290 | 0.0 | 6.4 | 0.10 | 0.86 | 0.86 | 91 | 1015.4 |
| 20260902215055 | 26 | 338 | 0.0 | 6.4 | 0.10 | 0.86 | 0.86 | 91 | 1015.6 |
| 20260902214603 | 27 | 309 | 0.0 | 1.6 | 0.10 | 0.86 | 0.86 | 93 | 1015.7 |
| 20260902214055 | 27 | 308 | 0.0 | 1.6 | 0.10 | 0.86 | 0.86 | 93 | 1015.7 |
| 20260902213557 | 27 | 307 | 0.0 | 1.6 | 0.10 | 0.86 | 0.86 | 93 | 1015.6 |
| 20260902213052 | 27 | 93 | 0.0 | 0.0 | 0.10 | 0.86 | 0.86 | 93 | 1015.6 |
| 20260902212552 | 26 | 93 | 0.0 | 3.2 | 0.10 | 0.86 | 0.86 | 92 | 1015.7 |
| 20260902212051 | 26 | 94 | 0.0 | 3.2 | 0.10 | 0.86 | 0.86 | 92 | 1015.7 |
| 20260902211607 | 27 | 303 | 0.0 | 1.6 | 0.08 | 0.81 | 0.81 | 92 | 1015.6 |
| 20260902211050 | 27 | 302 | 0.0 | 0.0 | 0.03 | 0.76 | 0.76 | 93 | 1015.7 |
| 20260902210552 | 27 | 303 | 0.0 | 1.6 | 0.03 | 0.76 | 0.76 | 93 | 1015.6 |
| 20260902210112 | 27 | 302 | 0.0 | 1.6 | 0.03 | 0.76 | 0.76 | 93 | 1015.5 |
| 20260902205548 | 27 | 302 | 0.0 | 0.0 | 0.03 | 0.76 | 0.76 | 93 | 1015.5 |
| 20260902205048 | 27 | 302 | 0.0 | 0.0 | 0.03 | 0.76 | 0.76 | 93 | 1015.6 |
| 20260902204547 | 26 | 302 | 0.0 | 0.0 | 0.03 | 0.76 | 0.76 | 92 | 1015.5 |
| 20260902204046 | 26 | 303 | 0.0 | 3.2 | 0.03 | 0.76 | 0.76 | 92 | 1015.5 |
| 20260902203544 | 26 | 303 | 0.0 | 3.2 | 0.03 | 0.76 | 0.76 | 92 | 1015.6 |
| 20260902203044 | 26 | 316 | 0.0 | 1.6 | 0.03 | 0.76 | 0.76 | 92 | 1015.5 |
| 20260902202543 | 26 | 133 | 0.0 | 0.0 | 0.03 | 0.76 | 0.76 | 92 | 1015.6 |
| 20260902202043 | 26 | 133 | 0.0 | 4.8 | 0.18 | 0.76 | 0.76 | 92 | 1015.6 |
| 20260902201541 | 26 | 42 | 0.0 | 4.8 | 0.69 | 0.71 | 0.71 | 91 | 1015.8 |
| 20260902201042 | 27 | 322 | 0.0 | 0.0 | 0.71 | 0.71 | 0.71 | 92 | 1015.7 |
| 20260902200544 | 27 | 322 | 0.0 | 1.6 | 0.71 | 0.71 | 0.71 | 91 | 1015.7 |
| 20260902200040 | 27 | 311 | 0.0 | 1.6 | 0.71 | 0.71 | 0.71 | 91 | 1015.7 |
| 20260902195540 | 27 | 304 | 0.0 | 1.6 | 0.71 | 0.71 | 0.71 | 92 | 1015.7 |
| 20260902195039 | 27 | 343 | 0.0 | 3.2 | 0.71 | 0.71 | 0.71 | 92 | 1015.6 |
| 20260902194538 | 27 | 309 | 0.0 | 3.2 | 0.71 | 0.71 | 0.71 | 92 | 1015.7 |
| 20260902194041 | 27 | 72 | 0.0 | 1.6 | 0.71 | 0.71 | 0.71 | 92 | 1015.6 |
| 20260902193537 | 26 | 249 | 0.0 | 3.2 | 0.71 | 0.71 | 0.71 | 91 | 1015.8 |
| 20260902193036 | 26 | 77 | 0.0 | 3.2 | 0.71 | 0.71 | 0.71 | 90 | 1015.8 |
| 20260902192537 | 27 | 91 | 0.0 | 4.8 | 0.71 | 0.71 | 0.71 | 88 | 1015.8 |
| 20260902192034 | 27 | 300 | 0.0 | 4.8 | 0.51 | 0.51 | 0.51 | 87 | 1016.0 |
| 20260902191537 | 28 | 315 | 0.0 | 4.8 | 0.03 | 0.03 | 0.03 | 86 | 1015.9 |
| 20260902191032 | 28 | 319 | 0.0 | 3.2 | 0.03 | 0.03 | 0.03 | 86 | 1015.7 |
| 20260902190532 | 28 | 6 | 0.0 | 3.2 | 0.03 | 0.03 | 0.03 | 86 | 1015.7 |
| 20260902190037 | 28 | 4 | 0.0 | 3.2 | 0.03 | 0.03 | 0.03 | 87 | 1015.7 |
| 20260902185533 | 28 | 107 | 0.0 | 3.2 | 0.03 | 0.03 | 0.03 | 87 | 1015.9 |
| 20260902185031 | 28 | 291 | 0.0 | 3.2 | 0.03 | 0.03 | 0.03 | 87 | 1016.1 |
| 20260902184532 | 28 | 310 | 0.0 | 3.2 | 0.03 | 0.03 | 0.03 | 86 | 1016.0 |
| 20260902184032 | 29 | 155 | 0.0 | 6.4 | 0.03 | 0.03 | 0.03 | 84 | 1016.3 |
| 20260902183630 | 30 | 152 | 0.0 | 6.4 | 0.00 | 0.00 | 0.00 | 82 | 1016.2 |
| 20260902183029 | 31 | 285 | 0.0 | 9.7 | 0.00 | 0.00 | 0.00 | 81 | 1016.1 |
| 20260902182532 | 31 | 51 | 1.6 | 9.7 | 0.00 | 0.00 | 0.00 | 81 | 1016.0 |
| 20260902182027 | 31 | 154 | 0.0 | 4.8 | 0.00 | 0.00 | 0.00 | 82 | 1016.1 |
| 20260902181527 | 30 | 240 | 0.0 | 3.2 | 0.00 | 0.00 | 0.00 | 82 | 1016.2 |
| 20260902181033 | 30 | 27 | 0.0 | 3.2 | 0.00 | 0.00 | 0.00 | 83 | 1016.1 |
| 20260902180526 | 30 | 269 | 0.0 | 4.8 | 0.00 | 0.00 | 0.00 | 83 | 1016.3 |
| 20260902180026 | 30 | 304 | 0.0 | 6.4 | 0.00 | 0.00 | 0.00 | 82 | 1016.4 |
| 20260902175529 | 30 | 326 | 0.0 | 8.0 | 0.00 | 0.00 | 0.00 | 83 | 1016.4 |
| 20260902175024 | 30 | 206 | 0.0 | 8.0 | 0.00 | 0.00 | 0.00 | 83 | 1016.3 |
| 20260902174523 | 30 | 227 | 0.0 | 3.2 | 0.00 | 0.00 | 0.00 | 82 | 1016.4 |
| 20260902174023 | 30 | 323 | 0.0 | 4.8 | 0.00 | 0.00 | 0.00 | 82 | 1016.5 |
| 20260902173521 | 30 | 197 | 0.0 | 6.4 | 0.00 | 0.00 | 0.00 | 82 | 1016.5 |
| 20260902173021 | 30 | 212 | 0.0 | 6.4 | 0.00 | 0.00 | 0.00 | 81 | 1016.3 |
| 20260902172519 | 31 | 88 | 0.0 | 6.4 | 0.00 | 0.00 | 0.00 | 79 | 1016.4 |
| 20260902172024 | 31 | 337 | 0.0 | 6.4 | 0.00 | 0.00 | 0.00 | 78 | 1016.4 |
| 20260902171518 | 32 | 198 | 0.0 | 6.4 | 0.00 | 0.00 | 0.00 | 75 | 1016.3 |
| 20260902171020 | 33 | 86 | 0.0 | 6.4 | 0.00 | 0.00 | 0.00 | 75 | 1016.4 |
| 20260902170516 | 33 | 326 | 0.0 | 6.4 | 0.00 | 0.00 | 0.00 | 73 | 1016.4 |
| 20260902170117 | 33 | 86 | 0.0 | 8.0 | 0.00 | 0.00 | 0.00 | 72 | 1016.4 |
| 20260902165514 | 33 | 221 | 0.0 | 8.0 | 0.00 | 0.00 | 0.00 | 75 | 1016.5 |
| 20260902165012 | 33 | 106 | 1.6 | 11.3 | 0.00 | 0.00 | 0.00 | 76 | 1016.6 |
| 20260902164509 | 33 | 316 | 0.0 | 6.4 | 0.00 | 0.00 | 0.00 | 76 | 1016.6 |
| 20260902164008 | 32 | 315 | 0.0 | 6.4 | 0.00 | 0.00 | 0.00 | 79 | 1016.7 |
| 20260902163507 | 32 | 97 | 0.0 | 4.8 | 0.00 | 0.00 | 0.00 | 79 | 1016.7 |